This is the latest recevied weather packets stored in our database for station/object N5RPG. If no packets are shown the sender has not sent any weather packets the latest 10 day(s).
| Time | Temp. | Humidity | Pressure | Rain* | Wind** | Luminosity | Snow |
|---|---|---|---|---|---|---|---|
| 1777303428 | 25° C | 87% | 1011.7 hPa | 0 mm | - | 134 W/m² | - |
| 1777303125 | 25° C | 88% | 1011.9 hPa | 0 mm | - | 78 W/m² | - |
| 1777302824 | 25° C | 87% | 1011.9 hPa | 0 mm | - | 81 W/m² | - |
| 1777302520 | 25° C | 87% | 1011.7 hPa | 0 mm | - | 60 W/m² | - |
| 1777302219 | 25° C | 87% | 1011.9 hPa | 0 mm | - | 86 W/m² | - |
| 1777301916 | 25° C | 87% | 1011.9 hPa | 0 mm | - | 63 W/m² | - |
| 1777301612 | 25° C | 88% | 1011.7 hPa | 0 mm | - | 115 W/m² | - |
| 1777301310 | 25° C | 88% | 1011.8 hPa | 0 mm | - | 123 W/m² | - |
| 1777301007 | 25° C | 88% | 1011.5 hPa | 0 mm | - | 140 W/m² | - |
| 1777300704 | 24.44° C | 88% | 1011.8 hPa | 0 mm | - | 87 W/m² | - |
| 1777300402 | 24.44° C | 88% | 1011.7 hPa | 0 mm | - | 64 W/m² | - |
| 1777300100 | 24.44° C | 88% | 1011.5 hPa | 0 mm | - | 70 W/m² | - |
| 1777299795 | 24.44° C | 88% | 1011.6 hPa | 0 mm | - | 60 W/m² | - |
| 1777299493 | 24.44° C | 88% | 1011.8 hPa | 0 mm | - | 74 W/m² | - |
| 1777299191 | 24.44° C | 88% | 1011.4 hPa | 0 mm | - | 71 W/m² | - |
| 1777298888 | 24.44° C | 88% | 1011.6 hPa | 0 mm | - | 63 W/m² | - |
| 1777298585 | 24.44° C | 88% | 1011.3 hPa | 0 mm | - | 38 W/m² | - |
| 1777298281 | 24.44° C | 88% | 1011.2 hPa | 0 mm | - | 53 W/m² | - |
| 1777297976 | 24.44° C | 87% | 1010.9 hPa | 0 mm | - | 68 W/m² | - |
| 1777297672 | 24.44° C | 88% | 1010.7 hPa | 0 mm | - | 115 W/m² | - |
| 1777297371 | 24.44° C | 88% | 1010.6 hPa | 0 mm | - | 103 W/m² | - |
| 1777297067 | 24.44° C | 88% | 1010.7 hPa | 0 mm | - | 105 W/m² | - |
| 1777296763 | 24.44° C | 88% | 1010.6 hPa | 0 mm | - | 106 W/m² | - |
| 1777296459 | 24.44° C | 88% | 1010.6 hPa | 0 mm | - | 82 W/m² | - |
| 1777296156 | 24.44° C | 88% | 1010.5 hPa | 0 mm | - | 65 W/m² | - |
* Rain latest hour (hover to see other rain measurements)
** Current wind speed in m/s (hover to see current wind gust speed)